Weather in Lelchitsi

Belarus     51˚47′15″N   28˚19′29″E
temp.,
°C
wind,
m/s
gust,
m/s
humid.,
%
clouds,
%
prec.,
mm/h
press.,
hPa
HPBL,
m
28 november, sat
sat2800:00+3˚w499686 0.1 1017553
03:00+3˚wsw488893 0.2 1016532
06:00+3˚sw2593100 0.1 1016388
09:00+2˚sw369388 0.2 1016423
12:00+3˚sw348298 0.1 1018596
15:00+3˚sw248499 0.7 1017530
18:00+2˚s2596100 1.2 1017299
21:00+2˚se2496100 1.9 1018296
29 november, sun
sun2900:00+1˚sse2393100 0.1 1019200
03:00−1˚se239689 0.1 101998
06:00sse129698 0.1 1019122
09:00ssw129799 0.3 1019101
12:00wsw1291100 0.3 1020247
15:00+1˚ssw238197 0.3 1020555
18:00sw1192100 0.1 102052
21:00−1˚ssw1298100 0.4 1021125
30 november, mon
mon3000:00−2˚ssw129898 0.1 102226
03:00−2˚s129761 0.1 102329
06:00−3˚s12959 0.0 102343
09:00−3˚ssw12944 0.0 102557
12:00sw238223 0.0 1025423
15:00wsw347855 0.0 1026664
18:00w2478100 0.0 1026594
21:00w2579100 0.1 1028490
1 december, tue
tue100:00−1˚wsw128099 0.0 102898
03:00−2˚wsw129486 0.0 102829
06:00−2˚wsw119660 0.0 102821
09:00−3˚wsw119637 0.0 102921
12:00wsw11790 0.0 1030324
15:00e007218 0.0 1029603
18:00−2˚e228928 0.0 102925
21:00−3˚e228926 0.0 103041
2 december, wed
wed200:00−3˚e12925 0.0 103032
03:00−3˚ene12893 0.0 103028
06:00−4˚ene228621 0.0 102947
09:00−4˚ene128711 0.0 102927
12:00−1˚ene12720 0.0 1029247
15:00−1˚ene12730 0.0 1028317
18:00−3˚ene12931 0.0 102821
21:00−3˚se229619 0.0 102867